Montana Department of Transportation

Main Content

Accidents and Incidents Report

Hourly Weather Roundup

ASUS45 KTFX 200819
RWRMT 
MONTANA HOURLY WEATHER ROUNDUP
NATIONAL WEATHER SERVICE GREAT FALLS MT
119 AM MST SAT DEC 20 2014

NOTE: "FAIR" INDICATES FEW OR NO CLOUDS BELOW 12000 FEET WITH NO
SIGNIFICANT WEATHER AND/OR OBSTRUCTIONS TO VISIBILITY.

* THESE STATIONS ARE NOT UNDER NWS QUALITY CONTROL. THEY DO NOT
   REPORT WEATHER SUCH AS PRECIPITATION OR FOG.

MTZ001.007-043-200900-
WEST OF THE DIVIDE
CITY           SKY/WX    TMP DP  RH WIND       PRES   REMARKS
KALISPELL      CLOUDY    36  32  85 S6        29.95S WCI  31 
MISSOULA       FOG       28  28 100 S3        30.02F VSB M1/4 
BUTTE          CLOUDY    32  21  64 SW7       29.97S WCI  25 
MULLAN PASS    LGT SNOW  27  23  85 VRB7G17   29.90F WCI  19 
* ESSEX        N/A       32  31  96 N/A        N/A   
* EUREKA APT   PTCLDY    37  30  76 SE7       29.95F WCI  32 
* HAMILTON APT PTCLDY    32  25  75 SW3       30.01F 
* LIBBY APT    CLEAR     30  30 100 CALM      29.98F VSB 3    
* LINCOLN      N/A       32  29  89 S6G12      N/A   WCI  26 
* LOOKOUT PASS N/A       30  27  89 SW2G8      N/A   
* POLSON       N/A       31  31 100 SE1        N/A   
* RONAN APT    PTCLDY    34  32  92 SE5        N/A   WCI  29 
* SEELEY LAKE  N/A       31  27  85 W2G8       N/A   
* THOMP F APT  PTCLDY    27  26  96 S4         N/A   
* YAAK HILL    N/A       36  33  89 E1         N/A   
--------------------------------

MTZ008-052.055-200900-
SOUTHWEST MONTANA
CITY           SKY/WX    TMP DP  RH WIND       PRES   REMARKS
BOZEMAN        MOCLDY    30  27  89 NE7       29.97R WCI  23 
DILLON         PTCLDY    28  21  75 SW7       29.98S WCI  21 
* W YELLOWSTON PTCLDY    27  25  92 SW4G12     N/A   
* THREE FORKS  PTCLDY    37  37 100 N/A        N/A   
* BOULDER HILL N/A       26  21  81 W1         N/A   
* MONIDA PASS  N/A       26  26 100 SE10       N/A   WCI  16 
* RAYNOLDS PAS N/A       26   9  48 SE7        N/A   WCI  18 
* WHITEHALL    N/A       36  27  70 SW11G20    N/A   WCI  28 
* WISE RIVER   N/A       29  24  82 W7         N/A   WCI  22 
--------------------------------

MTZ009.010-012-014-046-048-049-054-200900-
EAST SLOPES AND CENTRAL MONTANA
CITY           SKY/WX    TMP DP  RH WIND       PRES   REMARKS
CUT BANK       CLOUDY    36  27  70 W21       29.78S WCI  25 
GREAT FALLS    MOCLDY    37  25  62 SW17      29.85S WCI  27 
HELENA         MOCLDY    36  27  70 W5        29.94F WCI  32 
MALMSTROM AFB  MOCLDY    37  27  67 SW20      29.87R WCI  27 
* DEARBORN     N/A       41  22  47 S12G20     N/A   
* EAST GLACIER N/A       33  22  64 SW16G22    N/A   WCI  23 
* MONARCH      N/A       34  16  48 SW26       N/A   WCI  21 
* PENDROY      N/A       33  22  64 W12        N/A   WCI  24 
* ROGERS PASS  N/A       29  23  78 E9G24      N/A   WCI  21 
* SWEET GRASS  N/A       34  25  70 W23G32     N/A   WCI  22 
* WHITE SULPH  N/A       32  27  82 SW3        N/A   
--------------------------------

MTZ011-013-016-021-035-040-045-047-050-051-200900-
NORTH CENTRAL MONTANA
CITY           SKY/WX    TMP DP  RH WIND       PRES   REMARKS
HAVRE          CLOUDY    36  32  85 SW13      29.80S WCI  27 
LEWISTOWN      MOCLDY    39  27  62 SW23G29   29.84S WCI  28 
* N BAR RANCH  CLEAR     36  21  54 SW8       29.84S WCI  30 
* CHINOOK      MOCLDY    30  28  92 NE5       29.81S WCI  25 
* CHESTER      N/A       28  24  85 NW4        N/A   
* DENTON       N/A       35  27  73 SW6G12     N/A   WCI  30 
* GEYSER       N/A       38  21  50 SW20G26    N/A   WCI  28 
* JUDITH GAP   N/A       33  28  82 W1G6       N/A   
* LOMA         N/A       37  29  73 W7         N/A   WCI  32 
--------------------------------

MTZ017.020-022.027-061-062-200900-
NORTHEAST MONTANA
CITY           SKY/WX    TMP DP  RH WIND       PRES   REMARKS
GLASGOW        CLOUDY    30  27  89 E8        29.81S WCI  22 
GLENDIVE       CLOUDY    28  25  89 S6        29.86F WCI  21 
JORDAN         MOCLDY    28  27  96 W6        29.82R WCI  21 
SIDNEY         PTCLDY    18  16  92 CALM      29.88F VSB 2 1/2WOLF POINT     CLOUDY    25  21  85 E7        29.84F WCI  17 
* BEAVER HILL  N/A       34  23  64 SE8        N/A   WCI  27 
* CIRCLE       N/A       35  28  76 N/A        N/A   
* LINDSAY DVD  N/A       32  25  75 SE2        N/A   
* NAVAJO       N/A       24  23  96 S2         N/A   
* PLENTYWOOD A PTCLDY    18  16  92 CALM      29.84F VSB M1/4 
* POPLAR APT   PTCLDY    19  18  96 NE3       29.85F 
* SACO         N/A       30  27  89 E2         N/A   
--------------------------------

MTZ028.042-056.058-200900-
SOUTHCENTRAL AND SOUTHEAST MONTANA
CITY           SKY/WX    TMP DP  RH WIND       PRES   REMARKS
BAKER          CLOUDY    28  27  96 CALM      29.87S 
BILLINGS       PTCLDY    34  21  59 SW13      29.90S WCI  25 
LIVINGSTON     CLOUDY    39  25  57 W17       29.92R WCI  30 
MILES CITY     CLOUDY    28  23  81 S7        29.85F WCI  21 
* FORSYTH APT  CLOUDY    36  25  64 SW3       29.86S 
* LAUREL APT   PTCLDY    34  16  48 SW10       N/A   WCI  26 
* ROUNDUP APT  PTCLDY    34  25  70 N/A        N/A   
* ALZADA       N/A       31  22  69 W2         N/A   
* HYSHAM       N/A       36  20  52 SW2G11     N/A   
* LAME DEER    N/A       36  20  52 W12        N/A   WCI  28 
* REED POINT   N/A       25  23  92 E3         N/A   
* ROSCOE HILL  N/A       34  10  37 SE8        N/A   WCI  27 
--------------------------------

REGIONAL REPORTS...DAKOTAS
CITY           SKY/WX    TMP DP  RH WIND       PRES   REMARKS
WILLISTON      FOG       12  10  92 CALM      29.88F VSB M1/4 
DICKINSON      CLEAR     23  18  81 S7        29.85F WCI  15 
BEACH          CLOUDY    25  25 100 S3        29.86F 
CROSBY         FOG       18  18 100 CALM      29.88F VSB M1/4 
TIOGA          FOG       12  12 100 CALM      29.90F VSB M1/4 
WATFORD CITY   CLEAR     14  10  84 CALM      29.86F 
BISMARCK       FOG       16  14  92 NE5       29.95F VSB 1    WCI   8 
GRAND FORKS    FOG       28  27  96 CALM      30.00R 
FARGO          CLOUDY    30  28  92 S12       30.02R WCI  20 
BUFFALO SD     PTCLDY    27  19  72 S5        29.81F WCI  21 
RAPID CITY     CLEAR     25  18  75 W3        29.90S 
--------------------------------

REGIONAL REPORTS...WYOMING/IDAHO/WASHINGTON
CITY           SKY/WX    TMP DP  RH WIND       PRES   REMARKS
GILLETTE       MOCLDY    34  23  64 SW14      29.88S WCI  24 
SHERIDAN       CLOUDY    28  23  81 CALM      29.90S 
CODY           PTCLDY    39  23  53 W14G29    29.90F WCI  31 
YELLOWSTONE LA PTCLDY    25  21  85 VRB3      30.01S 
SALMON         MOCLDY    23  19  85 CALM      30.03F VSB 2    
MULLAN PASS    LGT SNOW  27  23  85 VRB7G17   29.90S WCI  19 
SAND POINT     CLOUDY    36  36 100 S5        29.98F WCI  32 
SPOKANE        MOCLDY    36  34  92 SE6       29.97F WCI  31 
--------------------------------

REGIONAL REPORTS...ALBERTA
CITY           SKY/WX    TMP DP  RH WIND       PRES   REMARKS
CALGARY        FAIR      30  21  69 CALM      29.70S 
LETHBRIDGE     MOCLDY    37  28  70 W20G30    29.76R WCI  27 
MEDICINE HAT   MOCLDY    36  32  85 SW13      29.72R WCI  27 
EDMONTON       MOCLDY    19  16  88 CALM      29.68S 
WATERTON GATE  N/A       36  21  54 SW17G29    N/A   WCI  26 
CARDSTON       N/A       37  27  67 W18G26     N/A   WCI  27 
MILK RIVER     N/A       34  27  76 W15        N/A   WCI  24 
--------------------------------

REGIONAL REPORTS...SASKATCHEWAN
CITY           SKY/WX    TMP DP  RH WIND       PRES   REMARKS
SWIFT CURRENT  CLOUDY    30  28  92 S16       29.69F WCI  19 
REGINA         FOG       16  14  92 SE13      29.85F VSB 1/4  WCI   2 
VAL MARIE      N/A       27  27 100 CALM       N/A   
ASSINIBOIA     N/A       23  21  92 SE5        N/A   WCI  16 
CORONACH       N/A       23  21  92 SE5        N/A   WCI  16 

--------------------------------